Location: *
(53.9002°N, 27.5624°E)
Time: 12:27:56
(UTC+00:00)

Cosmos 2219 - Visible Passes

Search period start: 18 February 2020 00:00
Search period end: 28 February 2020 00:00
Orbit: 833 x 860 km, 71.1° (Epoch: 17 February)

Date Brightness Start Highest point End Pass type
(mag) Time Alt. Az. Time Alt. Az. Time Alt. Az.
18 Feb 4.6 17:17:19 10° NNW 17:21:43 22° NNE 17:23:17 20° NE visible
18 Feb 4.1 19:01:19 10° NNW 19:05:13 42° N 19:05:13 42° N visible
18 Feb 5.7 20:45:55 10° NW 20:47:08 16° NW 20:47:08 16° NW visible
19 Feb 4.7 17:03:49 10° NNW 17:08:12 22° NNE 17:10:19 18° ENE visible
19 Feb 3.8 18:47:49 10° NNW 18:52:15 49° N 18:52:15 49° N visible
19 Feb 5.5 20:32:24 10° NW 20:34:11 19° WNW 20:34:11 19° WNW visible
20 Feb 4.7 16:50:20 10° NNW 16:54:41 22° NNE 16:57:23 16° ENE visible
20 Feb 3.5 18:34:19 10° NNW 18:39:19 56° NNE 18:39:19 56° NNE visible
20 Feb 5.3 20:18:54 10° NW 20:21:14 22° WNW 20:21:14 22° WNW visible
21 Feb 4.7 16:36:50 10° NNW 16:41:10 21° NNE 16:44:28 14° ENE visible
21 Feb 3.3 18:20:49 10° NNW 18:26:25 60° NE 18:26:25 60° NE visible
21 Feb 5.1 20:05:23 10° NW 20:08:21 25° WNW 20:08:21 25° WNW visible
22 Feb 4.7 16:23:20 10° NNW 16:27:39 21° NNE 16:31:37 11° ENE visible
22 Feb 3.2 18:07:20 10° NNW 18:13:02 59° NE 18:13:34 57° ENE visible
22 Feb 4.9 19:51:52 10° NW 19:55:30 29° W 19:55:30 29° W visible
23 Feb 4.7 16:09:50 10° NNW 16:14:08 21° NNE 16:18:26 10° ENE visible
23 Feb 3.3 17:53:51 10° NNW 17:59:32 58° NE 18:00:46 48° E visible
23 Feb 4.6 19:38:21 10° NW 19:42:42 33° W 19:42:42 33° W visible
24 Feb 3.3 17:40:21 10° NNW 17:46:02 57° NE 17:48:01 38° ESE visible
24 Feb 4.5 19:24:51 10° NW 19:29:58 35° WSW 19:29:58 35° WSW visible
25 Feb 3.4 17:26:51 10° NNW 17:32:32 56° NE 17:35:21 29° ESE visible
25 Feb 4.4 19:11:19 10° NW 19:16:30 35° WSW 19:17:18 34° SW visible
26 Feb 3.4 17:13:21 10° NNW 17:19:01 55° NE 17:22:46 21° ESE visible
26 Feb 4.5 18:57:50 10° NW 19:03:01 36° WSW 19:04:43 30° SW visible
27 Feb 3.4 16:59:51 10° NNW 17:05:31 54° NE 17:10:16 15° SE visible
27 Feb 4.5 18:44:18 10° NW 18:49:32 37° WSW 18:52:14 24° SSW visible
